Simultaneous Nadir Overpasses (SNOs) Predictions

Prediction of SNOs between AQUA and NPP Satellite Orbit:

Table of predicted SNOs for the next 14.0 days since TLE Epoch: 10/2/2020
Index Date (AQUA) Time (AQUA) Lat,Lon (AQUA) SZA (AQUA ) Date (NPP) Time (NPP) Lat,Lon (NPP) SZA (NPP ) Distance(km) Time Diff (sec)
1 10/04/2020 21:48:54 -75.54, -89.59 78.23 10/04/2020 21:48:05 -75.54, -89.49 78.21 2.79 49
2 10/04/2020 22:38:01 76.41, 80.75 100.83 10/04/2020 22:38:30 76.42, 80.76 100.80 0.35 29
3 10/07/2020 14:05:18 -75.74, 26.88 77.49 10/07/2020 14:04:55 -75.74, 26.90 77.47 0.71 23
4 10/07/2020 14:54:24 76.65,-162.55 101.52 10/07/2020 14:55:19 76.65,-162.60 101.48 1.43 55
5 10/10/2020 05:32:32 75.03, -26.85 104.22 10/10/2020 05:31:18 75.04, -26.77 104.26 2.76 74
6 10/10/2020 06:21:40 -76.03, 143.64 76.85 10/10/2020 06:21:43 -76.03, 143.61 76.85 0.89 3
7 10/12/2020 21:48:52 75.42, 90.09 104.74 10/12/2020 21:48:04 75.42, 90.14 104.77 1.38 48
8 10/12/2020 22:38:02 -76.31, -99.58 76.22 10/12/2020 22:38:31 -76.30, -99.65 76.23 1.96 29
9 10/15/2020 14:05:11 75.80,-152.92 105.27 10/15/2020 14:04:49 75.80,-152.90 105.28 0.53 22
